Clarksburg, WV

6:55 AM EDT on October 21, 2019 (GMT -0400)
Benedum

Weather History for KCKB - August, 2019

Change the Weather History Date:

Monday, August 12, 2019

  Actual Average Record
Temperature  
Mean Temperature 73 °F -  
Max Temperature 89 °F 81 °F 100 °F (1926)
Min Temperature 57 °F 58 °F 40 °F (1930)
Cooling Degree Days 8    
Growing Degree Days 23 (Base 50)    
Moisture  
Dew Point 59 °F    
Average Humidity 71    
Maximum Humidity 93    
Minimum Humidity 35    
Precipitation  
Precipitation 0.00 in - - ()
Sea Level Pressure  
Sea Level Pressure 29.97 in    
Wind  
Wind Speed 1 mph ()    
Max Wind Speed 10 mph    
Max Gust Speed -    
Visibility 8.0 miles    
Events Fog    
Averages and records for this station are not official NWS values.
T = Trace of Precipitation, MM = Missing Value Source: Averaged Metar Reports

Daily Weather History Graph

Daily Weather History Graph

Search for Another Location

Airport or City:

Astronomy

Aug. 12, 2019 Rise Set
Actual Time 6:30 AM EDT 8:20 PM EDT
Civil Twilight 6:01 AM EDT 8:49 PM EDT
Nautical Twilight 5:26 AM EDT 9:24 PM EDT
Astronomical Twilight 4:48 AM EDT 10:01 PM EDT
Moon 6:48 PM EDT (8/12) 3:39 AM EDT (8/12)
Length of Visible Light 14h 47m
Length of Day
13h 49m
Waxing Gibbous, 93% of the Moon is Illuminated
Aug 12
Waxing Gibbous
Aug 15
Full
Aug 23
Last Quarter
Aug 30
New
Sep 5
First Quarter

Hourly Weather History & Observations

Time (EDT) Temp. Heat Index Dew Point Humidity Pressure Visibility Wind Dir Wind Speed Gust Speed Precip Events Conditions
12:53 AM 64.0 °F - 57.0 °F 78% 30.02 in 10.0 mi Calm Calm - N/A   Clear
1:53 AM 61.0 °F - 57.0 °F 87% 30.01 in 10.0 mi Calm Calm - N/A   Clear
2:53 AM 62.1 °F - 57.9 °F 86% 30.00 in 10.0 mi Calm Calm - N/A   Clear
3:53 AM 61.0 °F - 57.0 °F 87% 29.99 in 10.0 mi Calm Calm - N/A   Clear
4:53 AM 59.0 °F - 55.9 °F 90% 29.99 in 8.0 mi Calm Calm - N/A   Clear
5:27 AM 60.1 °F - 55.9 °F 86% 30.03 in 4.0 mi Calm Calm - N/A   Clear
5:32 AM 60.1 °F - 55.9 °F 86% 30.03 in 1.8 mi Calm Calm - N/A   Clear
5:48 AM 59.0 °F - 55.4 °F 88% 30.03 in 0.5 mi Calm Calm - N/A Fog Fog
5:53 AM 59.0 °F - 55.0 °F 87% 29.99 in 0.5 mi Calm Calm - N/A Fog Fog
6:12 AM 59.0 °F - 55.9 °F 90% 30.03 in 2.5 mi Calm Calm - N/A   Clear
6:19 AM 59.0 °F - 55.9 °F 90% 30.03 in 5.0 mi Calm Calm - N/A   Clear
6:35 AM 57.9 °F - 55.0 °F 90% 30.03 in 1.8 mi Calm Calm - N/A   Clear
6:53 AM 57.9 °F - 55.0 °F 90% 29.99 in 2.5 mi Calm Calm - N/A   Clear
6:59 AM 57.9 °F - 55.9 °F 93% 30.03 in 10.0 mi Calm Calm - N/A   Clear
7:53 AM 63.0 °F - 59.0 °F 87% 30.00 in 10.0 mi Calm Calm - N/A   Clear
8:53 AM 66.9 °F - 60.1 °F 79% 30.01 in 10.0 mi SSW 3.5 mph - N/A   Clear
9:53 AM 73.0 °F - 61.0 °F 66% 29.99 in 10.0 mi Calm Calm - N/A   Clear
10:53 AM 78.1 °F - 61.0 °F 56% 30.01 in 10.0 mi Calm Calm - N/A   Clear
11:53 AM 82.0 °F 81.7 °F 57.0 °F 42% 29.99 in 10.0 mi WNW 3.5 mph - N/A   Clear
12:53 PM 82.0 °F 82.4 °F 60.1 °F 47% 29.96 in 10.0 mi SSE 4.6 mph - N/A   Clear
1:53 PM 86.0 °F 86.3 °F 62.1 °F 44% 29.95 in 10.0 mi SSW 10.4 mph - N/A   Clear
2:53 PM 87.1 °F 86.5 °F 59.0 °F 39% 29.93 in 10.0 mi SSW 9.2 mph - N/A   Clear
3:53 PM 89.1 °F 88.0 °F 57.9 °F 35% 29.91 in 10.0 mi WSW 5.8 mph - N/A   Clear
4:53 PM 88.0 °F 87.1 °F 59.0 °F 37% 29.88 in 10.0 mi SSW 6.9 mph - N/A   Clear
5:53 PM 86.0 °F 86.1 °F 61.0 °F 43% 29.88 in 10.0 mi SSW 8.1 mph - N/A   Clear
6:53 PM 84.0 °F 84.5 °F 62.1 °F 47% 29.88 in 10.0 mi West 3.5 mph - N/A   Clear
7:53 PM 82.9 °F 84.4 °F 64.0 °F 53% 29.87 in 10.0 mi Calm Calm - N/A   Clear
8:53 PM 79.0 °F - 66.0 °F 64% 29.88 in 10.0 mi Calm Calm - N/A   Clear
9:53 PM 75.9 °F - 68.0 °F 76% 29.89 in 10.0 mi Calm Calm - 0.00 in   Partly Cloudy
10:53 PM 73.9 °F - 66.9 °F 79% 29.88 in 10.0 mi Calm Calm - N/A   Mostly Cloudy
11:53 PM 73.9 °F - 66.9 °F 79% 29.86 in 10.0 mi Calm Calm - N/A   Scattered Clouds